[[{"header":{"parameterUnit":"m.s-1","parameterCategory":1,"la1":30.2991,"la2":30.254,"lo1":-89.0895,"lo2":-89.0444,"dx":0.0017,"dy":0.0017,"nx":28,"ny":28,"refTime":"2023-01-14T03:00:00:Z","depth":0,"parameterNumber":2,"parameterNumberName":"U-component_of_WINDS"},"data":[0,0,0,0,0,0,0,0,0,0,0,0,0,0,0,0,0,0,0,0,0,0,0,0,0,0,0,0,0,0,0,0,0,0,0,0,0,0,0,0,0,0,0,0,0,0,0,0,0,0,0,0,0,0,0,0,0,0,3.8189,3.8189,0,3.823,3.823,3.823,3.8177,3.8175,3.8173,3.8171,3.8212,3.8215,3.8217,0,0,0,0,0,0,0,0,0,0,0,0,0,3.8065,3.8068,3.8189,3.8189,3.819,3.823,3.823,3.8231,3.8177,3.8175,3.8172,3.817,3.8211,3.8214,3.8218,0,0,0,0,0,0,0,0,0,0,0,0,0,3.8114,3.8069,3.8189,3.8168,3.8166,3.8229,3.823,3.8231,3.8178,3.8175,3.8172,3.8169,3.821,3.8214,3.8218,3.8303,0,0,3.8231,3.8233,0,0,0,0,0,0,0,0,3.8111,3.8118,3.817,3.8169,3.8168,3.8195,3.8201,3.8255,3.8178,3.8173,3.8171,3.8168,3.8209,3.8213,3.8227,3.8305,3.8307,3.8232,3.8234,3.8236,3.8238,0,0,0,0,0,0,0,3.8108,3.8116,3.8205,3.8171,3.817,3.8157,3.816,3.8211,3.8207,3.8174,3.817,3.8175,3.8207,3.8223,3.8227,3.8307,3.8232,3.8236,3.8238,3.824,3.846,3.8463,0,0,0,0,0,0,3.8107,3.8114,3.8203,3.8206,3.8132,3.8161,3.8165,3.8189,3.8206,3.8206,3.8178,3.8173,3.8217,3.8222,3.8229,3.833,3.8236,3.824,3.8243,3.8456,3.846,3.8464,0,0,0,0,0,0,3.8104,3.8115,3.8202,3.8159,3.8169,3.8167,3.8194,3.8192,3.8207,3.8209,3.8208,3.8194,3.8215,3.8222,3.8286,3.8331,3.8242,3.8246,3.8453,3.8458,3.8462,3.8534,0,0,0,0,0,0,3.8101,3.8115,3.8147,3.816,3.8172,3.8258,3.8197,3.8195,3.8215,3.8208,3.8225,3.8224,3.8213,3.8279,3.829,3.8335,3.825,3.8449,3.8455,3.8461,3.8527,3.854,3.8552,0,0,0,0,0,3.8097,3.8164,3.8149,3.816,3.8211,3.8261,3.8267,3.8253,3.8219,3.8251,3.8253,3.8224,3.8325,3.8286,3.8298,3.8345,3.8446,3.8453,3.846,3.8522,3.8538,3.8551,0,0,0,0,0,0,3.8155,3.8166,3.8148,3.8222,3.8241,3.8252,3.8292,3.827,3.8299,3.8292,3.8273,3.8277,3.8345,3.8351,3.8308,3.8429,3.8379,3.8389,3.8422,3.8438,3.845,3.8446,3.8253,0,0,0,0,0,3.8177,3.8216,3.8223,3.8288,3.8299,3.8294,3.8315,3.8303,3.8321,3.8329,3.8335,3.8354,3.839,3.8414,3.8448,3.8528,3.8532,3.8567,3.8579,3.8589,3.8598,3.8642,3.8658,3.8488,3.8488,3.8488,0,0,3.8222,3.8232,3.8258,3.83,3.8313,3.8355,3.8301,3.8347,3.8377,3.8336,3.8396,3.8402,3.8422,3.8495,3.8527,3.8502,3.8646,3.8598,3.8606,3.8609,3.8652,3.8668,3.8682,3.8493,3.8492,3.8491,0,0,3.8325,3.8337,3.8392,3.8407,3.8429,3.8426,3.8439,3.8454,3.8456,3.8517,3.8487,3.8524,3.8586,3.8602,3.8618,3.8731,3.8706,3.8742,3.8806,3.885,3.8863,3.8875,3.8916,3.893,3.8751,3.8751,3.8751,0,3.8377,3.8439,3.8424,3.8472,3.8492,3.8458,3.8515,3.853,3.8561,3.8576,3.8548,3.8627,3.8638,3.8715,3.8743,3.8757,3.8772,3.874,3.8862,3.8874,3.8885,3.8924,3.8939,3.8755,3.8755,3.8754,3.8754,0,3.8503,3.8547,3.8589,3.8621,3.8646,3.8699,3.8692,3.8719,3.8706,3.8706,3.8769,3.8782,3.8818,3.8835,3.8822,3.8911,3.8895,3.8865,3.8815,3.8906,3.8942,3.8957,3.8762,3.876,3.8759,3.8758,0,0,3.8642,3.8667,3.8683,3.8698,3.872,3.8754,3.8806,3.8842,3.8866,3.8889,3.8932,3.8987,3.896,3.8979,3.8968,3.9006,3.9096,3.8972,3.8972,3.8995,3.9197,3.9219,3.9236,3.908,3.9083,3.9085,3.9195,0,3.8745,3.8835,3.8824,3.8911,3.8951,3.8921,3.8966,3.8985,3.8987,3.9022,3.9025,3.9064,3.9025,3.9037,3.9074,3.9077,3.9136,3.9069,3.9121,3.9123,3.9116,3.9255,3.9278,3.9381,3.9209,3.9211,3.9213,0,3.8877,3.8907,3.8998,3.9016,3.9032,3.9073,3.9107,3.914,3.9162,3.9161,3.9184,3.9166,3.9219,3.9169,3.9242,3.9196,3.9217,3.9222,3.9226,3.923,3.9173,3.9263,3.9414,3.9429,3.9235,3.9233,3.9232,0,3.897,3.9033,3.9095,3.9109,3.9132,3.9161,3.9172,3.9191,3.9214,3.9244,3.9259,3.9294,3.9313,3.9341,3.9333,3.9297,3.9409,3.9357,3.941,3.941,3.9434,3.9432,3.959,3.9448,3.9448,3.9447,3.9447,0,3.9087,3.9143,3.9138,3.9176,3.9239,3.9227,3.929,3.9297,3.9315,3.9355,3.933,3.9368,3.9356,3.9394,3.9389,3.9451,3.946,3.9461,3.9459,3.9463,3.9463,3.9476,3.9468,3.9451,3.945,3.945,3.9449,0,3.92,3.9199,3.9265,3.9282,3.9288,3.9334,3.9348,3.9385,3.9386,3.9437,3.9449,3.9451,3.9494,3.949,3.9538,3.9535,3.9612,3.9601,3.9605,3.9602,3.9656,3.9651,3.9827,3.985,3.9693,3.9694,3.9695,0,3.9275,3.9318,3.934,3.9366,3.9379,3.942,3.9444,3.9434,3.946,3.949,3.9523,3.9565,3.9597,3.9668,3.9674,3.9711,3.9701,3.9761,3.9707,3.971,3.9703,3.97,3.9705,3.9771,3.9773,3.9774,3.9776,0,3.9407,3.9405,3.944,3.9477,3.9507,3.9535,3.956,3.9582,3.9575,3.9606,3.9651,3.9676,3.9727,3.9769,3.9805,3.9816,3.9795,3.9793,3.9807,3.9812,3.9812,3.9813,3.9634,3.9789,3.9787,3.9786,3.9786,3.9785,3.9503,3.9541,3.9563,3.9604,3.9623,3.9648,3.9684,3.9691,3.9728,3.9769,3.9761,3.9812,3.9834,3.9881,3.9896,3.9936,3.9914,3.9934,3.994,3.9945,3.9951,3.9807,3.9942,3.9942,3.9941,3.9941,3.9941,0,3.9634,3.9648,3.9686,3.9723,3.9757,3.9735,3.9763,3.9792,3.9837,3.986,3.9893,3.9946,3.9987,3.9997,4.0037,4.0067,4.0058,4.0077,4.0075,4.0078,3.9968,3.9952,4.0083,4.0083,4.0083,4.0083,4.0083,4.0083,3.9707,3.977,3.9771,3.9843,3.9856,3.9906,3.9924,3.9947,3.9966,4.0026,4.006,4.0067,4.0085,4.0127,4.0164,4.0166,4.0182,4.0205,4.0203,4.01,4.0085,4.0072,4.0057,4.0208,4.0208,4.031,4.0311,4.0311]},{"header":{"parameterUnit":"m.s-1","parameterCategory":1,"la1":30.2991,"la2":30.254,"lo1":-89.0895,"lo2":-89.0444,"dx":0.0017,"dy":0.0017,"nx":28,"ny":28,"refTime":"2023-01-14T03:00:00:Z","depth":0,"parameterNumber":3,"parameterNumberName":"V-component_of_WINDS"},"data":[0,0,0,0,0,0,0,0,0,0,0,0,0,0,0,0,0,0,0,0,0,0,0,0,0,0,0,0,0,0,0,0,0,0,0,0,0,0,0,0,0,0,0,0,0,0,0,0,0,0,0,0,0,0,0,0,0,0,-6.0566,-6.0568,0,-6.0728,-6.0729,-6.0731,-6.0673,-6.067,-6.0666,-6.0663,-6.0826,-6.0833,-6.0841,0,0,0,0,0,0,0,0,0,0,0,0,0,-6.0207,-6.0214,-6.0566,-6.0568,-6.057,-6.0727,-6.0729,-6.0732,-6.0674,-6.067,-6.0665,-6.0661,-6.0823,-6.0833,-6.0842,0,0,0,0,0,0,0,0,0,0,0,0,0,-6.0365,-6.0217,-6.0566,-6.056,-6.0562,-6.0727,-6.073,-6.0732,-6.0675,-6.067,-6.0664,-6.0659,-6.082,-6.0832,-6.0843,-6.1023,0,0,-6.0878,-6.0883,0,0,0,0,0,0,0,0,-6.0357,-6.0379,-6.0559,-6.0561,-6.0563,-6.0675,-6.0663,-6.083,-6.0676,-6.0632,-6.0663,-6.0656,-6.078,-6.0794,-6.0837,-6.103,-6.1037,-6.0879,-6.0886,-6.0891,-6.0895,0,0,0,0,0,0,0,-6.0346,-6.0371,-6.063,-6.0562,-6.0564,-6.055,-6.0566,-6.0694,-6.0734,-6.0635,-6.0632,-6.0652,-6.078,-6.0826,-6.084,-6.104,-6.0879,-6.0889,-6.0896,-6.0901,-6.139,-6.1396,0,0,0,0,0,0,-6.0334,-6.0363,-6.0625,-6.0635,-6.0444,-6.0561,-6.0579,-6.0644,-6.0733,-6.0741,-6.0656,-6.0648,-6.0808,-6.0827,-6.0845,-6.1063,-6.0891,-6.0902,-6.0909,-6.1384,-6.1392,-6.1398,0,0,0,0,0,0,-6.0327,-6.0358,-6.0618,-6.0498,-6.053,-6.0573,-6.0646,-6.065,-6.0696,-6.0748,-6.0755,-6.0695,-6.0805,-6.0829,-6.098,-6.1067,-6.0907,-6.0918,-6.1377,-6.1386,-6.1395,-6.1498,0,0,0,0,0,0,-6.0317,-6.0356,-6.0424,-6.05,-6.0537,-6.075,-6.0652,-6.0657,-6.0716,-6.0708,-6.0787,-6.0795,-6.0803,-6.0963,-6.0991,-6.108,-6.0927,-6.1369,-6.1381,-6.1392,-6.1487,-6.1509,-6.1528,0,0,0,0,0,-6.0304,-6.0446,-6.0428,-6.046,-6.0624,-6.0755,-6.0776,-6.0783,-6.0724,-6.0793,-6.0827,-6.0792,-6.1053,-6.0978,-6.101,-6.1104,-6.1364,-6.1378,-6.1391,-6.1477,-6.1505,-6.1528,0,0,0,0,0,0,-6.0379,-6.0456,-6.0437,-6.0608,-6.0676,-6.0745,-6.0833,-6.0811,-6.0897,-6.0885,-6.0889,-6.0907,-6.1062,-6.1098,-6.1013,-6.1283,-6.12,-6.122,-6.1254,-6.1281,-6.1301,-6.129,-6.0936,0,0,0,0,0,-6.0416,-6.0517,-6.0578,-6.0723,-6.0758,-6.079,-6.0848,-6.0847,-6.0917,-6.0945,-6.099,-6.1059,-6.1156,-6.122,-6.1313,-6.1491,-6.1508,-6.1572,-6.1593,-6.161,-6.1627,-6.1726,-6.1755,-6.1443,-6.1443,-6.1443,0,0,-6.0492,-6.0546,-6.061,-6.074,-6.0792,-6.0897,-6.0815,-6.0928,-6.1006,-6.0962,-6.1108,-6.1143,-6.122,-6.1386,-6.1461,-6.142,-6.1717,-6.1627,-6.164,-6.1649,-6.1743,-6.1772,-6.1798,-6.1452,-6.145,-6.1449,0,0,-6.0685,-6.0736,-6.0863,-6.0918,-6.0999,-6.1019,-6.105,-6.1124,-6.1146,-6.1292,-6.1262,-6.1354,-6.1521,-6.1578,-6.1629,-6.1845,-6.1817,-6.1875,-6.1984,-6.208,-6.2105,-6.2126,-6.2204,-6.2232,-6.1893,-6.1893,-6.1893,0,-6.0769,-6.0926,-6.0931,-6.1048,-6.1106,-6.1073,-6.1202,-6.1254,-6.1361,-6.1402,-6.1355,-6.1566,-6.1616,-6.1795,-6.1848,-6.189,-6.1925,-6.1866,-6.2101,-6.2123,-6.2143,-6.2217,-6.2247,-6.1899,-6.1899,-6.1898,-6.1897,0,-6.1026,-6.1136,-6.1229,-6.1334,-6.1403,-6.1525,-6.1548,-6.1617,-6.1611,-6.1637,-6.1786,-6.1845,-6.1949,-6.1991,-6.1986,-6.2171,-6.2143,-6.2099,-6.2015,-6.2179,-6.2249,-6.2278,-6.1909,-6.1907,-6.1905,-6.1903,0,0,-6.127,-6.1378,-6.1412,-6.146,-6.1548,-6.1632,-6.1753,-6.1856,-6.1916,-6.1991,-6.2093,-6.2236,-6.2197,-6.2254,-6.2255,-6.2339,-6.2508,-6.2284,-6.2286,-6.2325,-6.2716,-6.2749,-6.2782,-6.249,-6.2495,-6.2499,-6.271,0,-6.1471,-6.1684,-6.1693,-6.1887,-6.1989,-6.1959,-6.2065,-6.213,-6.2157,-6.2247,-6.2277,-6.2379,-6.2318,-6.2353,-6.2435,-6.247,-6.2586,-6.2455,-6.2585,-6.2589,-6.2567,-6.2818,-6.2853,-6.3049,-6.2737,-6.2742,-6.2745,0,-6.1733,-6.1817,-6.2023,-6.2097,-6.214,-6.2235,-6.2331,-6.2417,-6.2491,-6.2505,-6.2571,-6.2559,-6.2683,-6.2595,-6.2767,-6.2677,-6.2731,-6.2756,-6.2764,-6.2776,-6.2677,-6.2838,-6.3111,-6.3141,-6.2788,-6.2784,-6.2781,0,-6.1891,-6.2056,-6.2201,-6.2243,-6.2333,-6.24,-6.2441,-6.2509,-6.2571,-6.2655,-6.2695,-6.2792,-6.2845,-6.292,-6.2936,-6.287,-6.3108,-6.3021,-6.3123,-6.3123,-6.3174,-6.3171,-6.3461,-6.3208,-6.3208,-6.3207,-6.3207,0,-6.2114,-6.2241,-6.2273,-6.2362,-6.2504,-6.2512,-6.2652,-6.2688,-6.2749,-6.2845,-6.2824,-6.2914,-6.2929,-6.3022,-6.3035,-6.3175,-6.3199,-6.3214,-6.3216,-6.3216,-6.3214,-6.3251,-6.3238,-6.3215,-6.3213,-6.3212,-6.3211,0,-6.2315,-6.2341,-6.2497,-6.257,-6.2592,-6.2693,-6.2755,-6.2841,-6.2866,-6.2988,-6.3016,-6.3057,-6.3166,-6.3188,-6.3317,-6.3325,-6.3493,-6.3481,-6.3468,-6.3467,-6.3569,-6.3559,-6.3892,-6.3937,-6.3655,-6.3658,-6.366,0,-6.2455,-6.2553,-6.2637,-6.27,-6.2744,-6.2845,-6.2909,-6.2921,-6.2988,-6.3081,-6.3155,-6.3262,-6.3348,-6.3524,-6.3564,-6.3663,-6.3653,-6.3764,-6.3668,-6.3666,-6.3656,-6.365,-6.366,-6.3782,-6.3785,-6.3787,-6.3789,0,-6.2703,-6.2712,-6.2804,-6.2903,-6.298,-6.3057,-6.3131,-6.3184,-6.3206,-6.3283,-6.3394,-6.3461,-6.3594,-6.37,-6.38,-6.3841,-6.382,-6.3819,-6.3848,-6.385,-6.3839,-6.3847,-6.3519,-6.3811,-6.3809,-6.3807,-6.3806,-6.3805,-6.2878,-6.2964,-6.3037,-6.3141,-6.3199,-6.3269,-6.3353,-6.339,-6.3483,-6.3593,-6.3594,-6.3717,-6.3789,-6.392,-6.3967,-6.4063,-6.4029,-6.407,-6.4081,-6.4091,-6.4101,-6.3823,-6.4081,-6.408,-6.408,-6.4079,-6.4079,0,-6.3125,-6.3171,-6.3267,-6.3372,-6.3455,-6.3428,-6.3509,-6.3579,-6.3688,-6.3757,-6.3843,-6.3972,-6.4076,-6.4125,-6.4227,-6.4295,-6.4288,-6.4321,-6.4317,-6.4327,-6.4126,-6.4091,-6.4325,-6.4325,-6.4325,-6.4325,-6.4325,-6.4325,-6.3264,-6.3407,-6.3425,-6.3597,-6.3642,-6.3762,-6.3811,-6.3876,-6.3931,-6.4077,-6.4163,-6.4195,-6.4257,-6.4364,-6.4458,-6.447,-6.4508,-6.4547,-6.4554,-6.4366,-6.4341,-6.4317,-6.4284,-6.4555,-6.4556,-6.4747,-6.4749,-6.475]}]]